Location: ??????
(55.2000°N, 38.3000°E)
Time: 09:05:16
(UTC+00:00)

Cosmos 2228 - Pass Details

Date: 15 November 2025
Orbit: 565 x 588 km, 82.5° (Epoch: 14 December)

Event Time Altitude Azimuth Distance (km) Brightness Sun altitude
Rises 03:56:11 0° 349° (NNW) 2,830 6.1 -9.0°
Reaches altitude 10° 03:58:24 10° 351° (N) 1,927 5.3 -8.7°
Maximum altitude 04:02:39 74° 77° (ENE) 621 3.2 -8.1°
Drops below altitude 10° 04:06:53 10° 163° (SSE) 1,917 6.2 -7.5°
Sets 04:09:05 0° 165° (SSE) 2,813 7.0 -7.3°
